Location: Newark
(63.1158°N, 8.1461°E)
Time: 02:27:54
(UTC+00:00)

Envisat - Pass Details

Date: 19 December 2019
Orbit: 764 x 766 km, 98.1° (Epoch: 26 January)

Event Time Altitude Azimuth Distance (km) Brightness Sun altitude
Rises 17:06:10 0° 168° (SSE) 3,229 6.3 -18.7°
Reaches altitude 10° 17:08:29 10° 171° (S) 2,307 5.5 -19.0°
Maximum altitude 17:13:33 68° 255° (WSW) 828 3.3 -19.6°
Drops below altitude 10° 17:18:40 10° 339° (NNW) 2,321 5.6 -20.1°
Sets 17:21:00 0° 342° (NNW) 3,251 6.3 -20.4°
